This demonstration page uses our WeatherBlox Daily Observations layout. Learn more.

39.01783, -85.05884

Hourly Observations for September 25, 2020

Temp ( °F °C ) Dew Point ( °F °C ) Humidity (%) Winds ( mph kmh ) Pressure ( in mb ) Visibility ( mi km ) Precip ( " mm )
12:52 am 00:52 Clear 61 16.1 54 12.2 78 78 Calm 29.98 1015 10 16.0934 0 0
1:52 am 01:52 Clear 61 16.1 54 12.2 78 78 Calm 29.97 1015 10 16.0934 0 0
2:52 am 02:52 Clear 60 15.6 54 12.2 80 80 E 3 6 29.96 1015 10 16.0934 0 0
3:52 am 03:52 Clear 60 15.6 54 12.2 80 80 E 3 6 29.95 1014 10 16.0934 0 0
4:52 am 04:52 Clear 59 15 53 11.7 81 81 Calm 29.96 1015 10 16.0934 0 0
5:52 am 05:52 Mostly Clear 59 15 54 12.2 83 83 NNE 3 6 29.96 1015 10 16.0934 0 0
6:52 am 06:52 Cloudy 59 15 55 12.8 87 87 NNE 6 9 29.98 1015 10 16.0934 0 0
7:52 am 07:52 Partly Cloudy 60 15.6 55 12.8 84 84 ENE 6 9 29.99 1016 9 14.48406 0 0
8:52 am 08:52 Mostly Sunny 62 16.7 56 13.3 80 80 NE 5 7 30 1016 8 12.87472 0 0
9:52 am 09:52 Partly Cloudy 65 18.3 56 13.3 73 73 E 8 13 30.01 1016 10 16.0934 0 0
10:52 am 10:52 Mostly Cloudy 68 20 55 12.8 63 63 ESE 7 11 30.02 1017 10 16.0934 0 0
11:52 am 11:52 Cloudy 69 20.6 56 13.3 63 63 ESE 8 13 30.02 1017 10 16.0934 0 0
12:52 pm 12:52 Mostly Cloudy 72 22.2 56 13.3 57 57 ESE 8 13 30 1016 10 16.0934 0 0
1:52 pm 13:52 Mostly Sunny 75 23.9 57 13.9 54 54 VRB 6 9 29.98 1015 10 16.0934 0 0
2:52 pm 14:52 Partly Cloudy 78 25.6 58 14.4 50 50 VRB 5 7 29.96 1014 10 16.0934 0 0
3:52 pm 15:52 Partly Cloudy 79 26.1 58 14.4 49 49 SSE 6 9 29.94 1014 10 16.0934 0 0
4:52 pm 16:52 Partly Cloudy 79 26.1 58 14.4 49 49 undefined N/A 29.93 1014 10 16.0934 0 0
5:52 pm 17:52 Mostly Cloudy 79 26.1 59 15 50 50 SSW 7 11 29.93 1014 10 16.0934 0 0
6:52 pm 18:52 Partly Cloudy 76 24.4 59 15 56 56 SW 6 9 29.95 1014 10 16.0934 0 0
7:52 pm 19:52 Partly Cloudy 71 21.7 60 15.6 68 68 SW 5 7 29.95 1014 10 16.0934 0 0
8:52 pm 20:52 Mostly Cloudy 71 21.7 60 15.6 68 68 S 5 7 29.96 1015 10 16.0934 0 0
9:52 pm 21:52 Mostly Cloudy 71 21.7 60 15.6 68 68 S 6 9 29.97 1015 10 16.0934 0 0
10:52 pm 22:52 Mostly Cloudy 69 20.6 60 15.6 73 73 S 3 6 29.97 1015 10 16.0934 0 0
11:52 pm 23:52 Partly Cloudy 67 19.4 60 15.6 79 79 S 3 6 29.97 1015 10 16.0934 0 0

Powered by AerisWeather